(232314) = 2002 TL93

Discovered at Palomar on 2002-10-03 by NEAT.

Orbit

Orbit type: Main Belt

Note: WebGL enabled browser required.

epoch2023-09-13.0
epoch JD2460200.5
perihelion date2023-05-10.07408
perihelion JD2460074.57408
argument of perihelion (°)18.92951
ascending node (°)274.83419
inclination (°)10.22174
eccentricity0.0922908
perihelion distance (AU)2.7872418
Tisserand w.r.t. Jupiter3.2
ΔV w.r.t. Earth (km/sec)10.9
semimajor axis (AU)3.0706331
mean anomaly (°)23.06625
mean daily motion (°/day)0.18317320
aphelion distance (AU)3.354
period (years)5.38
P-vector [x]0.39783506
P-vector [y]-0.86299090
P-vector [z]-0.31140644
Q-vector [x]0.90025526
Q-vector [y]0.30178166
Q-vector [z]0.31379660
absolute magnitude15.37
phase slope0.15
uncertainty0
referenceMPEC 2024-A55
observations used353
oppositions16
arc length (days)7763
first opposition used2002
last opposition used2023
residual rms (arc-secs)0.72
perturbers coarse indicatorM-v
perturbers precise indicator003Ek
first observation date used2002-09-03.0
last observation date used2023-12-05.0
computer nameMPCLINUX
JD of orbit computation2456670.965240
perihelion JD uncertainty (days)4.4399E-04
argument of perihelion uncertainty (°)1.0629E-04
ascending node uncertainty (°)7.3154E-05
inclination uncertainty (°)8.7644E-06
eccentricity uncertainty 7.8425E-08
perihelion distance uncertainty (AU)2.5048E-07
Minimum Orbit Intersection Distances (in AU)
for orbit epoch: 2460200.5, reference: E2023-XA2
Mercury2.33798
Venus2.06294
Earth1.77256
Mars1.34842
Jupiter1.80169
Saturn5.71586
Uranus15.2284
Neptune26.6919

Observations

362 total observations over interval: 2002 09 03.45367 – 2023 12 05.232449
These data are available for download (format description).

Date (UT) J2000 RA J2000 Dec Magn Location Ref
2002 09 03.45367 00 16 07.54 +17 53 13.0 19.6   644 – Palomar Mountain/NEAT MPS 83019
2002 09 03.46424 00 16 07.12 +17 53 12.6 19.7   644 – Palomar Mountain/NEAT MPS 83019
2002 09 03.47460 00 16 06.72 +17 53 12.0 19.4   644 – Palomar Mountain/NEAT MPS 83019
2002 09 12.49569 00 09 58.42 +17 38 17.6 20.0   644 – Palomar Mountain/NEAT MPS 83019
2002 09 12.50618 00 09 57.95 +17 38 15.4 19.9   644 – Palomar Mountain/NEAT MPS 83019
2002 09 12.51662 00 09 57.48 +17 38 13.8 20.0   644 – Palomar Mountain/NEAT MPS 83019
2002 10 03.24031 23 54 06.30 +16 08 44.6 19.7   644 – Palomar Mountain/NEAT MPS 64009
2002 10 03.26159 23 54 05.29 +16 08 37.3 19.9   644 – Palomar Mountain/NEAT MPS 64009
2002 10 03.29812 23 54 03.63 +16 08 24.9 19.5   644 – Palomar Mountain/NEAT MPS 64009
2002 10 04.17058 23 53 25.44 +16 03 20.1 19.8   644 – Palomar Mountain/NEAT MPS 64009
2002 10 04.18115 23 53 24.92 +16 03 16.6 19.8   644 – Palomar Mountain/NEAT MPS 64009
2002 10 04.19273 23 53 24.41 +16 03 12.6 19.6   644 – Palomar Mountain/NEAT MPS 64009
2002 10 06.27043 23 51 54.53 +15 50 52.1 20.0   704 – Lincoln Laboratory ETS, New Mexico MPS 64009
2002 10 06.28597 23 51 53.81 +15 50 45.1 19.3   704 – Lincoln Laboratory ETS, New Mexico MPS 64009
2002 10 06.30145 23 51 53.14 +15 50 40.0 19.5   704 – Lincoln Laboratory ETS, New Mexico MPS 64009
2002 10 06.31696 23 51 52.48 +15 50 33.9 20.0   704 – Lincoln Laboratory ETS, New Mexico MPS 64009
2002 10 09.25163 23 49 51.00 +15 32 33.8 19.4   704 – Lincoln Laboratory ETS, New Mexico MPS 64009
2002 10 09.26725 23 49 50.35 +15 32 27.9 19.6   704 – Lincoln Laboratory ETS, New Mexico MPS 64009
2002 10 09.28284 23 49 49.65 +15 32 22.2 19.7   704 – Lincoln Laboratory ETS, New Mexico MPS 64009
2002 10 09.29832 23 49 48.99 +15 32 15.9 19.8   704 – Lincoln Laboratory ETS, New Mexico MPS 64009
2002 10 09.31416 23 49 48.43 +15 32 10.3 20.7   704 – Lincoln Laboratory ETS, New Mexico MPS 64009
2003 12 18.27791 05 23 42.63 +26 18 42.9 20.1   704 – Lincoln Laboratory ETS, New Mexico MPS 445783
2003 12 18.29201 05 23 41.84 +26 18 39.9 20.3   704 – Lincoln Laboratory ETS, New Mexico MPS 445783
2003 12 18.32084 05 23 40.09 +26 18 34.8 20.6   704 – Lincoln Laboratory ETS, New Mexico MPS 445783
2005 03 10.21860 09 26 08.56 +02 45 36.9 19.7 R 703 – Catalina Sky Survey MPS 263101
2005 03 10.22708 09 26 08.31 +02 45 38.6 19.6 R 703 – Catalina Sky Survey MPS 263101
2005 03 10.23554 09 26 07.98 +02 45 40.2 19.7 R 703 – Catalina Sky Survey MPS 263101
2005 03 10.24403 09 26 07.59 +02 45 43.0 20.8 R 703 – Catalina Sky Survey MPS 263101
2006 05 22.58361 14 32 10.14 -26 32 47.5 19.4 V E12 – Siding Spring Survey MPS 263101
2006 05 22.59449 14 32 09.70 -26 32 43.5 20.0 V E12 – Siding Spring Survey MPS 263101
2006 05 22.60544 14 32 09.09 -26 32 39.0 19.7 V E12 – Siding Spring Survey MPS 263101
2006 05 22.61639 14 32 08.70 -26 32 34.2 19.2 V E12 – Siding Spring Survey MPS 263101
2007 08 12.27191 21 55 45.19 +00 39 46.3 19.1   704 – Lincoln Laboratory ETS, New Mexico MPS 313033
2007 08 12.28384 21 55 44.58 +00 39 46.5 19.9   704 – Lincoln Laboratory ETS, New Mexico MPS 313033
2007 08 12.29577 21 55 43.94 +00 39 44.6 19.9   704 – Lincoln Laboratory ETS, New Mexico MPS 313033
2007 08 12.32007 21 55 42.79 +00 39 43.5 19.7   704 – Lincoln Laboratory ETS, New Mexico MPS 313033
2007 09 05.21880 21 37 11.17 -00 17 36.6 19.5 V 703 – Catalina Sky Survey MPS 263101
2007 09 05.22685 21 37 10.84 -00 17 38.4 19.5 V 703 – Catalina Sky Survey MPS 263101
2007 09 05.23491 21 37 10.48 -00 17 39.5 19.3 V 703 – Catalina Sky Survey MPS 263101
2007 09 05.24308 21 37 10.16 -00 17 40.8 19.3 V 703 – Catalina Sky Survey MPS 263101
2008 10 26.25955 03 45 40.35 +29 52 24.7 20.3 V 691 – Steward Observatory, Kitt Peak-Spacewatch MPS 263101
2008 10 26.27727 03 45 39.59 +29 52 22.9 20.1 V 691 – Steward Observatory, Kitt Peak-Spacewatch MPS 263101
2008 10 26.29498 03 45 38.80 +29 52 19.7 20.1 V 691 – Steward Observatory, Kitt Peak-Spacewatch MPS 263101
2008 10 30.26996 03 42 41.13 +29 41 48.0 20.3 V 691 – Steward Observatory, Kitt Peak-Spacewatch MPS 263101
2008 10 30.28767 03 42 40.28 +29 41 45.1 20.0 V 691 – Steward Observatory, Kitt Peak-Spacewatch MPS 263101
2008 10 30.30539 03 42 39.43 +29 41 41.9 20.1 V 691 – Steward Observatory, Kitt Peak-Spacewatch MPS 263101
2008 11 03.26122 03 39 29.25 +29 29 05.5 19.9 V 691 – Steward Observatory, Kitt Peak-Spacewatch MPS 286869
2008 11 03.27884 03 39 28.26 +29 29 01.8 19.5 V 691 – Steward Observatory, Kitt Peak-Spacewatch MPS 286869
2008 11 03.29646 03 39 27.44 +29 28 58.6 19.9 V 691 – Steward Observatory, Kitt Peak-Spacewatch MPS 286869
2009 12 19.46917 08 37 14.29 +13 16 19.8 21.3 V 691 – Steward Observatory, Kitt Peak-Spacewatch MPS 308593
2009 12 19.48683 08 37 13.80 +13 16 18.2 21.2 V 691 – Steward Observatory, Kitt Peak-Spacewatch MPS 308593
2009 12 19.50453 08 37 13.27 +13 16 16.6 20.9 V 691 – Steward Observatory, Kitt Peak-Spacewatch MPS 308593
2010 02 06.26354 08 00 13.60 +13 21 37.4 20.2 V G96 – Mt. Lemmon Survey MPS 313033
2010 02 06.26520 08 00 13.53 +13 21 37.5 20.2 V G96 – Mt. Lemmon Survey MPS 313033
2010 02 06.26689 08 00 13.42 +13 21 37.4 20.3 V G96 – Mt. Lemmon Survey MPS 313033
2010 02 06.26860 08 00 13.35 +13 21 37.9 20.8 V G96 – Mt. Lemmon Survey MPS 313033
2011 03 11.35679 12 45 02.66 -20 30 13.6 20.2 V G96 – Mt. Lemmon Survey MPS 374726
2011 03 11.36800 12 45 02.19 -20 30 12.8 19.9 V G96 – Mt. Lemmon Survey MPS 374726
2011 03 11.37909 12 45 01.80 -20 30 12.1 19.9 V G96 – Mt. Lemmon Survey MPS 374726
2011 03 29.40602 12 31 57.156 -19 40 54.00 20.4 g F51 – Pan-STARRS 1, Haleakala MPS 378504
2011 03 29.41720 12 31 56.594 -19 40 51.11 20.3 g F51 – Pan-STARRS 1, Haleakala MPS 378504
2011 03 29.42979 12 31 55.988 -19 40 47.99 19.7 i F51 – Pan-STARRS 1, Haleakala MPS 378504
2011 03 29.44138 12 31 55.416 -19 40 44.90 19.7 i F51 – Pan-STARRS 1, Haleakala MPS 378504
2013 09 26.36495 01 35 38.04 +25 01 04.4 20.0 V 703 – Catalina Sky Survey MPS 478551
2013 09 26.37171 01 35 37.76 +25 01 03.1 20.2 V 703 – Catalina Sky Survey MPS 478551
2013 09 26.37846 01 35 37.55 +25 01 03.1 19.5 V 703 – Catalina Sky Survey MPS 478551
2013 09 26.38524 01 35 37.14 +25 01 02.8 20.0 V 703 – Catalina Sky Survey MPS 478551
2013 10 24.32266 01 14 05.376 +22 56 33.24 19.6 r F51 – Pan-STARRS 1, Haleakala MPS 483372
2013 10 24.33483 01 14 04.799 +22 56 28.69 19.6 r F51 – Pan-STARRS 1, Haleakala MPS 483372
2013 10 28.22388 01 11 11.51 +22 31 03.0 20.1 V 703 – Catalina Sky Survey MPS 484957
2013 10 28.23043 01 11 11.16 +22 30 59.3 19.3 V 703 – Catalina Sky Survey MPS 484957
2013 10 28.23696 01 11 10.90 +22 30 57.8 19.6 V 703 – Catalina Sky Survey MPS 484957
2013 10 28.24347 01 11 10.71 +22 30 54.3 19.9 V 703 – Catalina Sky Survey MPS 484957
2013 11 27.43537 00 57 25.46 +19 11 53.2 20.9 R D29 – Purple Mountain Observatory, XuYi Station MPS 489668
2013 11 27.46122 00 57 25.27 +19 11 44.8 20.6 R D29 – Purple Mountain Observatory, XuYi Station MPS 489668
2013 11 29.20842 00 57 13.161 +19 02 07.38 20.8 g F51 – Pan-STARRS 1, Haleakala MPS 490817
2013 11 29.21998 00 57 13.085 +19 02 03.52 20.7 g F51 – Pan-STARRS 1, Haleakala MPS 490817
2013 12 26.14446 01 02 36.70 +17 24 37.8 20.8 V 703 – Catalina Sky Survey MPS 493181
2013 12 26.15151 01 02 36.93 +17 24 38.2 20.3 V 703 – Catalina Sky Survey MPS 493181
2013 12 26.15856 01 02 37.13 +17 24 35.6 20.7 V 703 – Catalina Sky Survey MPS 493181
2013 12 26.16561 01 02 37.38 +17 24 35.3 20.4 V 703 – Catalina Sky Survey MPS 493181
2014 11 18.45878 07 03 53.588 +23 25 04.27 20.8 w F51 – Pan-STARRS 1, Haleakala MPS 547190
2014 11 18.47205 07 03 53.313 +23 25 03.24 20.7 w F51 – Pan-STARRS 1, Haleakala MPS 547190
2014 11 18.48531 07 03 53.064 +23 25 02.05 20.6 w F51 – Pan-STARRS 1, Haleakala MPS 547190
2014 12 28.36446 06 36 22.82 +22 30 14.0 19.4 V G96 – Mt. Lemmon Survey MPS 560745
2014 12 28.37171 06 36 22.41 +22 30 13.6 20.0 V G96 – Mt. Lemmon Survey MPS 560745
2014 12 28.37902 06 36 21.99 +22 30 12.9 19.9 V G96 – Mt. Lemmon Survey MPS 560745
2014 12 28.38627 06 36 21.58 +22 30 12.2 19.8 V G96 – Mt. Lemmon Survey MPS 560745
2015 11 23.61794 10 53 04.766 -01 29 26.58 21.5 w F51 – Pan-STARRS 1, Haleakala MPS 656525
